Location: Young's Pond
(41.2695°N, 72.7766°W)
Time: 10:10:43
(UTC-04:00)

Daily predictions for brighter satellites

Satellite Brightness Start Highest point End
(mag) Time Altitude Azimuth Time Altitude Azimuth Time Altitude Azimuth
Meteor 2-16 Rocket 4.5 18:15:41 10° S 18:21:46 78° E 18:27:55 10° N
ALOS 3.4 18:21:10 10° ESE 18:24:49 23° ENE 18:28:27 10° NNE
CSL-04 Rocket 4.3 18:23:32 10° S 18:28:50 62° WSW 18:34:06 10° NNW
Cosmos 2322 Rocket 3.7 18:25:05 10° NW 18:30:22 43° WSW 18:35:38 10° S
COSMOS 2428 3.3 18:26:01 10° N 18:31:15 36° ENE 18:36:28 10° SE
Cosmos 2218 Rocket 4.1 18:27:08 10° S 18:33:16 83° W 18:39:27 10° N
SPOT 3 Rocket 4.0 18:28:25 10° SE 18:33:17 42° ENE 18:38:10 10° N
Cosmos 2333 Rocket 3.4 18:29:33 10° N 18:33:57 22° NE 18:38:21 10° ESE
Cosmos 1833 4.3 18:29:38 10° SSW 18:35:21 86° WNW 18:41:01 10° NNE
Cosmos 1452 Rocket 3.5 18:31:04 10° NNW 18:36:19 69° ENE 18:41:33 10° SSE
Cosmos 2219 3.9 18:31:35 10° SSE 18:36:39 33° ESE 18:41:43 10° NE
Cosmos 1339 Rocket 4.5 18:30:42 10° N 18:37:03 78° E 18:43:15 10° S
GRACE-1 4.4 18:35:56 10° SSE 18:38:16 31° E 18:40:37 10° NNE
Aureole 2 Rocket 4.1 18:36:24 10° NNE 18:39:20 20° ENE 18:42:20 10° ESE
FENGYUN 3A 4.3 18:34:49 10° SE 18:39:37 34° ENE 18:44:28 10° N
CORIOLIS 4.4 18:34:22 10° S 18:39:45 77° WSW 18:45:12 10° NNW
MTI 3.7 18:37:34 10° NNE 18:40:48 81° ESE 18:43:59 10° S
Cosmos 1727 Rocket 4.0 18:35:16 10° N 18:41:40 82° E 18:47:59 10° S
CZ-4 R/B 2.0 18:40:02 10° S 18:44:12 65° WSW 18:48:20 10° NNW
Abrixas 2.5 18:42:49 10° SSW 18:44:48 32° SE 18:46:07 16° E
Cosmos 2297 Rocket 4.0 18:44:58 10° E 18:45:06 10° E 18:45:06 10° E
Iridium 4 Rocket 4.2 18:40:41 10° SSE 18:45:51 39° E 18:51:16 10° NNE
Delta 2 Rocket 4.3 18:42:26 10° WSW 18:46:05 34° S 18:49:24 10° ESE
Cosmos 2098 Rocket 4.0 18:43:44 10° SSE 18:47:56 35° E 18:53:08 10° NNE
Cosmos 2221 2.8 18:43:56 10° SSE 18:48:03 46° E 18:52:13 10° NNE
GP-B 3.2 18:43:58 10° N 18:48:26 86° W 18:52:52 10° S
SKYMED 2 3.6 18:44:31 10° NNE 18:48:51 61° E 18:53:07 10° S
MONITOR-E 4.2 18:46:30 10° SSE 18:49:31 56° ENE 18:52:33 10° N
CZ-4 R/B 4.4 18:45:47 10° SSE 18:49:55 89° NE 18:54:05 10° NNW
Cosmos 1743 Rocket 4.2 18:45:48 10° NNW 18:50:09 62° W 18:54:30 10° S
Aureole 2 4.2 18:47:56 10° NNW 18:51:05 78° ENE 18:54:38 10° SSE
Cosmos 44 3.0 18:49:12 10° SSW 18:53:30 61° ESE 18:57:47 10° NE
Cosmos 921 Rocket 3.0 18:49:24 10° NNW 18:53:52 86° ENE 18:58:12 10° SSE
ERS-2 3.3 18:53:04 10° S 18:56:38 47° W 19:00:14 10° NNW
Cosmos 2322 3.9 18:52:56 10° NNW 18:58:41 79° WSW 19:04:22 10° SSE
EO 1 Del DPAF 3.4 18:55:04 10° N 18:58:56 80° WNW 19:02:46 10° SSW
Cosmos 1842 Rocket 4.3 18:54:40 10° SSW 18:59:04 57° W 19:03:27 10° N
Abrixas rocket 3.9 18:58:40 10° NW 19:01:21 23° N 19:03:10 15° NE
SL-8 R/B 4.4 19:00:40 10° W 19:05:21 48° NNW 19:09:09 15° NE
Cosmos 1726 2.4 19:02:33 10° SSE 19:06:02 41° E 19:09:32 10° NNE
Cosmos 2219 Rocket 2.5 19:02:57 10° NNW 19:08:19 44° ENE 19:13:38 10° SE
Cosmos 1315 Rocket 3.1 19:05:01 10° NNW 19:09:05 72° W 19:13:11 10° S
Cosmos 1048 Rocket 3.9 19:07:15 10° SSW 19:12:21 79° ESE 19:17:30 10° NNE
Cosmos 158 Rocket 4.0 19:08:27 10° SSW 19:13:30 83° WNW 19:18:44 10° NNE
NOAA 12 4.0 19:10:24 10° SSE 19:15:41 78° ENE 19:21:02 10° N
APEX 3.0 19:12:39 10° SSW 19:15:46 61° WNW 19:18:22 11° NNE
DELTA 2 R/B (1) 4.4 19:11:18 10° W 19:16:37 46° SSW 19:21:07 14° SE
Cosmos 1420 Rocket 4.4 19:13:28 10° NNW 19:18:45 68° WSW 19:23:58 10° S
FREGAT/IRIS 3.6 19:24:03 30° NE 19:24:03 30° NE 19:26:01 10° N
NOSS 0 Rocket 4.2 19:17:38 10° NNW 19:23:34 47° ENE 19:27:35 20° ESE
CZ-4C R/B 2.0 19:18:34 10° SSW 19:23:43 83° ESE 19:29:38 10° NE
Cosmos 44 Rocket 3.5 19:21:12 10° SW 19:25:53 68° WNW 19:30:35 10° NNE
SJ-6B 3.4 19:30:48 34° NE 19:30:48 34° NE 19:33:43 10° N
Resurs 01 Rocket 3.5 19:33:45 15° NNE 19:33:45 15° NNE 19:34:59 10° NNE
Thor Agena Rocket 3.4 19:29:20 10° NNE 19:34:24 67° ESE 19:39:24 10° S
Cosmos 2333 4.4 19:28:50 10° NNW 19:34:34 76° WSW 19:40:19 10° SSE
Sich 1 2.9 19:31:31 10° N 19:35:53 64° E 19:40:14 10° SSE
COSMO-SKYMED 1 4.0 19:32:46 10° N 19:36:49 39° WNW 19:40:51 10° SW
PSLV R/B 4.3 19:34:21 10° SW 19:36:41 29° S 19:36:41 29° S
Cosmos 1535 Rocket 4.4 19:35:59 10° S 19:42:08 90° W 19:48:16 10° N
In-Cosmos 22 Rocket 4.3 19:37:04 10° N 19:42:45 59° ENE 19:48:29 10° SSE
Cosmos 2237 Rocket 2.5 19:38:34 10° NNW 19:44:04 46° ENE 19:45:24 39° E
H-2A R/B 2.6 19:43:54 32° SSE 19:45:36 78° ENE 19:49:33 10° N
Atlas Centaur 2 4.2 19:43:31 10° SW 19:45:51 13° SSW 19:48:25 10° SSE
USA 267 3.8 19:45:00 32° ESE 19:46:05 34° SE 19:51:54 10° S
Cosmos 1331 Rocket 4.0 19:42:28 10° NNW 19:47:37 56° ENE 19:48:57 43° ESE
Gbstr 26 Del rocket 3.6 19:42:39 10° NW 19:47:48 84° SW 19:50:40 33° SE
Cosmos 1805 Rocket 4.2 19:45:18 10° NNW 19:49:37 57° W 19:53:56 10° S
Cosmos 2227 Rocket 2.3 19:45:40 10° S 19:51:04 49° ESE 19:52:07 43° ENE
SL-16 R/B 3.5 19:51:10 10° N 19:54:46 24° NE 19:54:46 24° NE
Cosmos 1666 Rocket 3.7 19:54:33 10° NNW 19:58:54 72° W 20:02:43 13° S
ALOS 3.8 19:57:43 10° SSW 20:02:01 37° W 20:06:22 10° NNW
Cosmos 1300 3.4 19:59:42 10° SSW 20:03:27 54° W 20:07:13 10° N
Cosmos 1633 Rocket 3.1 20:00:05 10° N 20:04:31 77° W 20:06:13 37° S
Cosmos 1980 3.5 20:02:37 10° NNW 20:08:17 77° ENE 20:09:17 60° SE
Meteor 2-3 Rocket 4.0 20:03:02 10° N 20:07:50 48° NE 20:07:50 48° NE
Cosmos 1934 Rocket 4.4 20:06:11 10° SSW 20:12:28 63° W 20:18:48 10° N
Aureole 2 Rocket 4.4 20:10:51 10° NW 20:14:26 33° WSW 20:16:41 19° SSW
COSMOS 2428 4.3 20:10:24 10° NW 20:15:25 33° WSW 20:20:25 10° SSW
Cosmos 2333 Rocket 2.6 20:12:59 10° NNW 20:18:40 61° WSW 20:21:36 29° S
USA 234 4.3 20:20:48 29° NNE 20:21:38 30° NNE 20:27:09 10° NW
BREEZE-M DEB (TANK) 3.3 20:11:55 10° WNW 20:25:56 86° NNE 20:26:19 78° E
Cosmos 2297 Rocket 2.5 20:22:47 10° SSW 20:27:03 53° SSW 20:27:03 53° SSW
Cosmos 494 Rocket 4.3 20:24:20 10° SSW 20:29:22 60° WNW 20:30:46 44° NNW
USA 32 4.4 20:32:06 10° N 20:36:35 60° NW 20:36:35 60° NW
Cosmos 2082 4.2 20:32:10 10° SSW 20:36:17 49° SSW 20:36:17 49° SSW
BREEZE-M DEB (TANK) 3.8 20:35:40 10° WNW 20:41:01 43° NW 20:41:01 43° NW
Cosmos 2219 Rocket 4.1 20:47:24 10° NW 20:51:59 26° WSW 20:55:32 14° SSW
Resurs 01 Rocket 4.4 21:11:19 14° NW 21:11:19 14° NW 21:12:02 10° NNW
CZ-4C R/B 4.4 21:08:57 10° W 21:13:06 21° NNW 21:15:06 18° N
Cosmos 2237 Rocket 4.1 21:23:14 10° NW 21:27:16 25° W 21:27:16 25° W
USA 267 4.5 21:32:23 34° WSW 21:32:23 34° WSW 21:35:49 10° WSW
Cosmos 2227 Rocket 4.2 21:30:42 10° WSW 21:34:04 24° WNW 21:34:04 24° WNW
SL-16 R/B 4.4 21:34:47 10° NW 21:36:39 21° NW 21:36:39 21° NW
CZ-3A R/B 4.4 21:46:33 10° NW 21:56:32 53° WNW 21:56:32 53° WNW
